Погода в Большом Кукморе

Россия / Республика Татарстан     56°11′53″N   50°50′52″E
темп.,
°C
ветер,
м/с
пор.,
м/с
влажн.,
%
обл.,
%
осадки,
мм/ч
давл.,
гПа
погр.,
м
7 мая, пт
пт700:00+9ююз398471 0.0 1015150
03:00+10ююз41277100 0.0 1015266
06:00+12ююз51371100 0.0 1015369
09:00+16ююз71155100 0.0 1015779
12:00+17ююз81147100 0.0 10152136
15:00+17ююз71150100 0.0 10142212
18:00+15ююз61256100 0.0 1013516
21:00+12ююз41169100 0.0 1014277
8 мая, сб
сб800:00+10юз3586100 0.0 1015128
03:00+9ссз4691100 0.1 1017264
06:00+8с3491100 0.3 1018248
09:00+10св2283100 0.3 1018380
12:00+14ссз0171100 0.0 1017562
15:00+16ююв346032 0.7 10161123
18:00+15юв356762 0.3 1015117
21:00+11юв36775 0.3 101582
9 мая, вс
вс900:00+10ююв398013 0.0 1014145
03:00+9ююв411829 0.0 1014199
06:00+12ююв513733 0.0 1014405
09:00+17ююв710575 0.0 1014843
12:00+21ю7104723 0.0 10142190
15:00+21ю6946100 0.0 10142522
18:00+18ююз2263100 0.0 101420
21:00+15ююв2268100 0.0 101611
10 мая, пн
пн1000:00+14юв3371100 0.0 101641
03:00+12ссз1180100 0.0 101810
06:00+14вюв1273100 0.0 101996
09:00+19ю2456100 0.3 1020504
12:00+21з2351100 0.0 10211308
15:00+20ссз5562100 0.0 1022792
18:00+14с61084100 1.2 1024459
21:00+11с5109226 1.2 1026414
11 мая, вт
вт1100:00+10с588495 0.0 1027546
03:00+10ссв587954 0.0 1028533
06:00+10ссв58745 0.0 1029682
09:00+13ссв566110 0.0 1030917
12:00+17ссв56385 0.0 10291220
15:00+18ссв55305 0.0 10291409
18:00+16ссв364912 0.0 1029141
21:00+11ссв335856 0.0 103026